Location: Kershaw
(34.5481°N, 80.5823°W)
Time: 03:43:34
(UTC+00:00)

Transit 2A Rocket - Pass Details

Date: 07 October 2022
Orbit: 589 x 911 km, 66.7° (Epoch: 27 November)

Event Time Altitude Azimuth Distance (km) Brightness Sun altitude
Exits shadow 09:18:12 47° 136° (SE) 781 5.2 -26.1°
Maximum altitude 09:18:40 50° 113° (ESE) 755 5.2 -26.0°
Drops below altitude 10° 09:22:48 10° 38° (NE) 1,921 7.7 -25.2°
Sets 09:25:05 0° 33° (NNE) 2,836 8.6 -24.7°
